This is the latest recevied weather packets stored in our database for station/object OK1FET-15. If no packets are shown the sender has not sent any weather packets the latest 10 day(s).
| Time | Temp. | Humidity | Pressure | Rain* | Wind** | Luminosity | Snow |
|---|---|---|---|---|---|---|---|
| 1777883828 | 23.89° C | 39% | 1014.1 hPa | - | - | - | - |
| 1777883520 | 23.89° C | 39% | 1014.2 hPa | - | - | - | - |
| 1777883212 | 23.89° C | 39% | 1014.1 hPa | - | - | - | - |
| 1777882904 | 23.89° C | 37% | 1014.1 hPa | - | - | - | - |
| 1777882596 | 23.89° C | 39% | 1014.1 hPa | - | - | - | - |
| 1777882288 | 23.89° C | 39% | 1014.1 hPa | - | - | - | - |
| 1777881979 | 23.89° C | 40% | 1014.1 hPa | - | - | - | - |
| 1777881671 | 23.89° C | 40% | 1014.1 hPa | - | - | - | - |
| 1777881363 | 23.89° C | 40% | 1014 hPa | - | - | - | - |
| 1777881055 | 23.33° C | 43% | 1014 hPa | - | - | - | - |
| 1777880747 | 22.78° C | 44% | 1014.1 hPa | - | - | - | - |
| 1777880439 | 21.67° C | 44% | 1014.1 hPa | - | - | - | - |
| 1777880132 | 21.67° C | 45% | 1014 hPa | - | - | - | - |
| 1777879824 | 21.11° C | 47% | 1013.9 hPa | - | - | - | - |
| 1777879516 | 21.11° C | 49% | 1013.9 hPa | - | - | - | - |
| 1777879208 | 20.56° C | 51% | 1013.9 hPa | - | - | - | - |
| 1777878901 | 20° C | 51% | 1013.9 hPa | - | - | - | - |
| 1777878593 | 19.44° C | 54% | 1013.9 hPa | - | - | - | - |
| 1777878285 | 18.89° C | 50% | 1013.9 hPa | - | - | - | - |
| 1777877978 | 18.89° C | 56% | 1013.9 hPa | - | - | - | - |
| 1777877670 | 18.33° C | 58% | 1013.9 hPa | - | - | - | - |
| 1777877362 | 17.78° C | 58% | 1013.9 hPa | - | - | - | - |
| 1777877055 | 17.22° C | 62% | 1013.9 hPa | - | - | - | - |
| 1777876747 | 16.67° C | 67% | 1013.9 hPa | - | - | - | - |
| 1777876440 | 15.56° C | 68% | 1013.9 hPa | - | - | - | - |
* Rain since midnight (hover to see other rain measurements)
** Current wind speed in m/s (hover to see current wind gust speed)